sat.trackr.live / text

‹ back to catalog

STARLINK-35947

NORAD 66883 · 2025-283F

PAYLOAD ACTIVE UNKNOWN

§ Identity

Operator
Country
US
Launch date
2025-12-04
Launch site
AFWTR
Launch vehicle
Mass (kg)
RCS (m²)

Purposes: comms

External: N2YO · Heavens-Above · Gunter

§ Orbital elements

Epoch: 2026-09-19T10:52:46.317504Z

Period
93.85 min
Inclination
53.1576°
Eccentricity
0.0001068
Mean motion
15.34411195 rev/d
Perigee alt
461.9 km
Apogee alt
463.4 km
Semi-major
6,840.8 km
B*
6.8903e-4
RAAN
200.3735°
Arg perigee
71.3596°
Mean anomaly
288.7522°
Rev number
4,558

§ Raw data

STARLINK-359471 66883U 25283F   26262.45331386  .00022984  00000+0  68903-3 0  99952 66883  53.1576 200.3735 0001068  71.3596 288.7522 15.34411195 45586

JSON: /api/v1/satellites/66883 · /tle

For live sub-satellite position, see the globe view (requires WebGL).

§ Visibility from observer

Set your observer location to see the next 7 days of passes ≥ 10°. The values pass through the URL so the page stays shareable.

No JS? Fill the form by hand. The geolocation button needs JavaScript.